Location: *
(25.1997°S, 77.7000°E)
Time: 14:15:55
(UTC+00:00)

Daily predictions for brighter satellites

Satellite Brightness Start Highest point End
(mag) Time Altitude Azimuth Time Altitude Azimuth Time Altitude Azimuth
Meteosat 1 Rocket2 2.9 12:56:19 10° WSW 13:00:04 87° NNW 13:04:49 10° ENE
NOAA 12 4.3 12:56:27 10° SSE 13:01:43 54° E 13:06:55 10° N
Meteor 1-24 Rocket 4.3 12:57:27 10° NNE 13:02:08 31° E 13:06:59 10° SSE
Lacrosse 5 4.4 12:59:45 10° W 13:02:59 17° SW 13:06:15 10° S
FALCON 9 R/B 3.1 12:47:29 10° WNW 13:04:18 85° SSW 13:08:59 10° ESE
USA 81 4.4 12:59:34 10° NNE 13:04:33 44° E 13:09:36 10° SSE
STARLINK-75 3.8 13:02:19 10° SSW 13:05:18 32° SE 13:08:13 10° ENE
CZ-4B R/B 4.4 13:01:30 10° S 13:06:39 46° WSW 13:11:42 10° NW
KORONAS-FOTON 3.8 13:03:20 10° N 13:07:05 65° E 13:10:55 10° SSE
NOSS 3-1 (C) 4.3 12:59:17 10° NNW 13:08:15 84° ENE 13:16:37 10° SSE
Cosmos 1140 Rocket 3.5 13:05:13 10° SSW 13:10:32 80° ESE 13:15:45 10° NNE
Aurora 2 Rocket 2.2 13:08:18 10° WNW 13:11:21 48° NNE 13:14:13 12° E
Meteor 1-16 Rocket 4.1 13:06:38 10° S 13:11:57 63° E 13:17:12 10° NNE
USA 234 4.2 13:06:43 10° NNE 13:13:03 53° NW 13:19:28 10° SW
GPS 2-14 Rocket1 3.7 13:12:48 10° WNW 13:16:25 36° N 13:20:05 10° ENE
Atlas Centaur 2 3.3 13:11:41 10° NW 13:17:42 33° NNE 13:22:03 13° E
Cosmos 332 Rocket 3.8 13:15:18 10° N 13:20:10 80° ENE 13:25:04 10° SSE
Helios 1A Rocket 4.1 13:16:34 10° S 13:20:37 48° WSW 13:24:36 10° NNW
STARLINK-22 3.6 13:18:20 10° SSW 13:21:21 36° SE 13:23:42 14° ENE
Okean O Rocket 4.3 13:21:56 10° SSW 13:25:17 22° WSW 13:28:37 10° WNW
Fermi 3.7 13:21:50 10° W 13:25:55 84° S 13:28:53 18° E
YAOGAN 1 3.6 13:24:46 10° SE 13:28:16 23° E 13:31:45 10° NNE
Cosmos 1833 Rocket 4.1 13:24:46 10° SSE 13:28:16 17° ESE 13:29:25 16° ESE
Okean 1-7 Rocket 3.5 13:25:53 10° N 13:30:20 83° E 13:34:55 10° S
Meteor 2-5 Rocket 3.8 13:25:21 10° N 13:30:54 86° W 13:36:38 10° S
Cosmos 1331 Rocket 4.1 13:26:17 10° N 13:31:20 55° ENE 13:36:29 10° SSE
Intelsat 5-2 Rocket 3.0 13:30:44 10° NW 13:32:55 32° NNE 13:34:03 22° ENE
STARLINK 1040 2.7 13:34:28 10° SW 13:37:11 72° NW 13:39:06 17° NNE
STARLINK-41 2.7 13:34:27 10° SW 13:37:38 79° SE 13:39:39 20° NE
Cosmos 1626 2.1 13:36:43 10° N 13:40:22 58° E 13:44:04 10° SSE
DELTA 2 R/B (1) 4.0 13:36:24 10° NNW 13:41:43 46° NE 13:44:44 24° E
Cosmos 1745 Rocket 4.2 13:36:58 10° N 13:43:04 72° W 13:49:15 10° S
CSL-04 Rocket 4.3 13:40:06 10° SE 13:44:52 31° E 13:49:32 10° NNE
Cosmos 2278 Rocket 3.3 13:39:31 10° NW 13:44:57 47° WSW 13:50:27 10° S
Cosmos 2297 4.1 13:40:40 10° N 13:45:57 39° ENE 13:51:17 10° SE
COSMOS 2406 3.4 13:41:31 10° S 13:47:00 46° ESE 13:52:05 12° NE
Cosmos 2058 Rocket 3.2 13:43:25 10° S 13:47:50 50° E 13:52:12 10° NNE
IUS-7 SRM-1 4.1 13:44:41 10° NW 13:47:51 48° NNE 13:53:16 23° E
STARLINK-42 3.7 13:45:17 10° SW 13:48:28 52° NW 13:50:45 17° NNE
Lacrosse 5 rocket 3.5 13:47:45 10° SSE 13:48:12 11° SSE 13:48:12 11° SSE
Nadezhda 1 Rocket 4.0 13:43:35 10° S 13:49:58 74° E 13:56:22 10° N
Cosmos 1726 Rocket 3.5 13:46:46 10° S 13:51:09 84° W 13:55:31 10° N
Cosmos 304 Rocket 3.9 13:47:21 10° NNW 13:52:08 78° WSW 13:57:00 10° SSE
USA 215 4.1 13:52:07 25° E 13:54:04 29° ENE 13:59:35 10° N
Delta 7925 Rocket 4.2 13:53:58 10° W 14:00:24 83° S 14:04:39 31° E
BREEZE-M DEB (TANK) 2.9 13:59:08 10° SW 14:00:11 25° SSW 14:00:11 25° SSW
Cosmos 2228 4.1 13:58:48 10° SSW 14:02:53 45° W 14:06:57 10° NNW
SL-14 R/B 3.9 14:00:51 10° NNW 14:04:40 55° W 14:08:31 10° S
Cosmos 1340 Rocket 3.2 14:00:42 10° SSW 14:04:48 67° W 14:08:52 10° N
Cosmos 1607 4.3 13:59:26 10° S 14:05:10 38° ESE 14:06:04 37° E
Cosmos 1908 4.4 14:02:13 10° SSW 14:05:55 44° W 14:09:34 10° NNW
STARLINK-61 3.6 14:02:03 10° SSW 14:05:55 55° SE 14:05:55 55° SE
Cosmos 44 3.8 14:04:04 10° S 14:08:27 40° SE 14:08:27 40° SE
Cosmos 1626 Rocket 3.4 14:04:59 10° N 14:09:18 88° E 14:13:42 10° S
SL-24 R/B 3.7 14:08:34 25° NNE 14:10:49 85° E 14:15:09 10° S
Intelsat 5-1 Rocket 2.7 14:09:07 10° NW 14:11:45 36° NNE 14:11:45 36° NNE
OAO 3 Rocket 3.7 14:08:26 10° NW 14:12:57 41° NNE 14:12:57 41° NNE
Okean-O 4.1 14:09:38 10° S 14:13:47 38° WSW 14:17:53 10° NW
IRIDIUM 114 4.3 14:08:44 10° NNE 14:13:48 54° E 14:18:56 10° SSE
NOAA 11 4.4 14:11:44 10° S 14:17:11 72° WSW 14:22:35 10° NNW
CZ-2C R/B 3.9 14:15:06 10° N 14:19:33 67° WNW 14:24:00 10° SSW
Cosmos 1602 Rocket 3.4 14:17:21 10° N 14:21:40 87° W 14:23:09 41° S
STARLINK-64 3.9 14:18:10 10° SW 14:21:19 55° W 14:21:19 55° W
Cosmos 1741 Rocket 3.9 14:16:46 10° SSW 14:22:06 88° ESE 14:24:38 32° NNE
IRIDIUM 103 4.2 14:17:46 10° N 14:22:57 69° E 14:28:12 10° S
DMSP B5D2-2 4.0 14:18:13 10° NNE 14:23:30 88° E 14:28:52 10° SSW
Cosmos 1939 Rocket 4.0 14:25:39 10° S 14:29:35 44° WSW 14:33:25 10° NNW
CZ-4 R/B 3.1 14:27:37 10° S 14:31:14 32° WSW 14:34:45 10° NW
FUSE 3.9 14:32:53 10° W 14:38:02 79° WNW 14:38:02 79° WNW
Cosmos 1302 Rocket 4.5 14:33:40 10° NNW 14:38:52 60° WSW 14:42:28 20° S
CZ-2C R/B 2.7 14:37:32 40° N 14:39:32 77° WNW 14:45:05 10° SSW
IRIDIUM 106 4.4 14:35:59 10° N 14:41:11 75° W 14:46:28 10° S
MOS 1 Rocket 3.7 14:44:43 66° WNW 14:44:58 68° W 14:49:57 10° SSW
BREEZE-M DEB (TANK) 3.8 14:38:44 10° SW 14:47:13 83° S 14:47:13 83° S
H-II Stage 2 3.6 14:53:36 10° WSW 14:57:58 84° SSE 14:59:27 66° E
Cosmos 2082 Rocket 3.8 14:59:41 10° SSW 15:01:52 24° SSW 15:01:52 24° SSW
Atlas Centaur 2 3.2 15:00:47 10° WNW 15:04:40 39° WNW 15:04:40 39° WNW
Cosmos 1833 Rocket 3.8 15:06:55 10° SSW 15:11:12 41° WSW 15:11:12 41° WSW
USA 215 4.5 15:39:32 36° W 15:39:32 36° W 15:43:24 10° WNW
Cosmos 2237 Rocket 3.4 22:28:48 37° SE 22:28:48 37° SE 22:32:27 10° SSE
NOSS 3-1 (C) 4.3 22:39:37 35° SSE 22:40:51 39° ESE 22:45:45 10° NE
Hubble Space Telescope 3.4 22:45:52 15° NE 22:45:52 15° NE 22:47:21 10° ENE
SL-4 R/B 3.4 22:53:42 43° ENE 22:53:42 43° ENE 22:57:45 10° SE
GPS 2-15 Rocket1 4.5 22:57:28 32° NE 22:57:28 32° NE 23:00:23 10° ENE
EXPRESS MD2 4.0 23:02:55 69° SE 23:03:02 70° SE 23:10:34 10° NE
METEOR-M 4.4 23:04:37 10° NNE 23:09:56 67° ESE 23:15:18 10° S
SEDSat Delta rocket 3.9 23:20:13 39° SSW 23:20:36 40° S 23:25:31 10° ESE
Sakura Rocket 2.8 23:21:47 70° SSE 23:21:47 70° SSE 23:25:15 10° ESE
Star 37E S/N 40062 4.2 23:22:00 64° WSW 23:22:31 73° S 23:33:01 10° ESE
Cosmos 494 Rocket 4.1 23:20:17 10° N 23:25:30 76° ENE 23:30:44 10° SSE
OAO 2 Rocket 4.1 23:26:55 34° NNW 23:26:55 34° NNW 23:31:05 10° NNE
ATLAS 2A CENTAUR R/B 3.2 23:21:45 34° W 23:26:45 81° S 23:30:45 10° E
STARLINK-1066 3.8 23:27:42 47° E 23:27:42 47° E 23:30:11 10° NE
STARLINK-1081 3.7 23:28:05 51° E 23:28:05 51° E 23:30:42 10° NE
FENGYUN 3A 3.5 23:22:30 10° N 23:27:51 75° WNW 23:33:18 10° SSW
STARLINK-1070 3.6 23:28:31 52° E 23:28:31 52° E 23:31:09 10° NE
STARLINK-1069 3.6 23:29:00 51° E 23:29:00 51° E 23:31:35 10° NE
STARLINK-1085 3.6 23:29:26 52° E 23:29:26 52° E 23:32:01 10° NE
ALOS 2.1 23:24:42 10° N 23:29:21 70° W 23:34:03 10° SSW
STARLINK-1086 3.5 23:29:48 55° E 23:29:48 55° E 23:32:30 10° NE
STARLINK-1095 3.5 23:30:15 56° E 23:30:15 56° E 23:32:58 10° NE
STARLINK-1077 3.4 23:30:41 58° E 23:30:41 58° E 23:33:25 10° NE
STARLINK-1075 3.4 23:31:07 59° E 23:31:07 59° E 23:33:52 10° NE
STARLINK-1093 3.4 23:31:36 58° E 23:31:36 58° E 23:34:17 10° NE
Cosmos 1536 Rocket 4.3 23:26:47 10° S 23:31:13 56° E 23:35:37 10° NNE
STARLINK-1074 3.3 23:32:02 59° E 23:32:02 59° E 23:34:44 10° NE
STARLINK-1087 3.2 23:32:25 63° E 23:32:25 63° E 23:35:13 10° NE
STARLINK-1088 3.2 23:32:51 64° E 23:32:51 64° E 23:35:40 10° NE
STARLINK-1115 3.2 23:33:21 63° E 23:33:21 63° E 23:36:06 10° NE
STARLINK-1076 3.2 23:33:45 65° E 23:33:45 65° E 23:36:32 10° NE
STARLINK-1092 3.1 23:34:12 66° E 23:34:12 66° E 23:37:00 10° NE
STARLINK-1080 3.1 23:34:34 70° E 23:34:34 70° E 23:37:28 10° NE
STARLINK-1090 3.0 23:35:00 72° E 23:35:00 72° E 23:37:55 10° NE
STARLINK-1089 3.0 23:35:26 74° E 23:35:26 74° E 23:38:23 10° NE
STARLINK-1107 2.9 23:35:52 75° E 23:35:52 75° E 23:38:50 10° NE
Cosmos 1420 Rocket 3.9 23:34:19 10° SSW 23:39:38 80° WNW 23:44:57 10° N
PSLV R/B 3.7 23:39:30 10° N 23:43:20 60° W 23:47:07 10° SSW
Delta 2 Rocket 4.4 23:46:05 32° WNW 23:47:53 42° NW 23:52:36 10° NE
Cosmos 2266 Rocket 3.9 23:41:51 10° SSW 23:48:03 67° W 23:54:19 10° N
Cosmos 1242 Rocket 3.5 23:44:55 10° S 23:48:28 48° E 23:51:53 10° NNE
SL-16 R/B 2.1 23:43:16 10° NNW 23:48:56 80° WSW 23:54:40 10° SSE
Cosmos 972 Rocket 4.2 23:45:55 10° SSW 23:51:56 66° W 23:57:15 10° N
NOSS 2-3 (D) 4.1 23:46:05 10° SSW 23:52:01 76° ESE 23:56:38 10° NNE
CZ-4B R/B 3.2 23:50:43 10° SSW 23:51:57 19° SSW 23:51:57 19° SSW
